Content
SEND FEEDBACK

Daily
Averages
Monthly
Summary
United States of America

SOUTH LAKE TAHOE, CALIFORNIA


Home > North America > United States > California
Elevation: 6263 feet     Latitude: 38 53N     Longitude: 119 59W

WEATHER
 
SELECT A DAY
Number of Records: 174,391;   Date Range: 1/1/95 - 7/26/14
 
SHARE

PRINT THIS DATA

[ ← Previous Day ]
WEATHER ALMANAC - OCTOBER 18, 2013
[ Next Day → ]
[ °C ]   °F
Weather ElementAverageHighLow
Temperature51.4 °F66.2 °F (3:28 pm)23 °F (7:53 am)
Dewpoint20.6 °F24.1 °F (5:53 pm)15.1 °F (5:53 am)
Humidity34.7 %72 % (7:53 am)16 % (2:28 pm)
Barometer30.21 in30.27 in (7:53 am)30.14 in (2:53 pm)
Wind Speed3.1 mph6.9 mph (2:28 pm)
Weather ElementAverage
Visibility7 mi
Wind DirectionNE (39.5 °)

Weather ElementTotal
Precipitation---
Heating Degree Days20.4 (Base 65)
Averaged from 37 records on October 18, 2013
WEATHER CONDITIONS BREAKOUT
WIND DIRECTION BREAKOUT
WEATHER BY HOUR - OCTOBER 18, 2013
[ °C ]   °F
Local TimeTemperatureDewpointHumidityBarometerVisibilityWind DirectionWind SpeedGust SpeedPrecipitationEventsConditions
1:53 AM30.0 °F17.1 °F59 %30.16 in10.0 miCalmClear
2:53 AM28.9 °F16.0 °F58 %30.16 in10.0 miCalmClear
3:53 AM28.0 °F16.0 °F61 %30.17 in10.0 miSouth (170°)4.6 mphClear
4:53 AM27.0 °F16.0 °F63 %30.19 in10.0 miSouth (190°)3.5 mphClear
5:53 AM26.1 °F15.1 °F63 %30.22 in10.0 miSouth (180°)5.8 mphClear
6:53 AM24.1 °F15.1 °F69 %30.25 in10.0 miSouth (190°)5.8 mphClear
7:53 AM23.0 °F15.1 °F72 %30.27 in10.0 miSouth (180°)3.5 mphClear
8:53 AM33.1 °F19.9 °F59 %30.27 in10.0 miCalmClear
9:53 AM48.9 °F19.9 °F32 %30.23 in10.0 miCalmClear
10:53 AM57.0 °F19.9 °F24 %30.20 in10.0 miENE (60°)4.6 mphClear
11:53 AM60.1 °F21.0 °F22 %30.19 in10.0 miVariable3.5 mphClear
12:53 PM62.1 °F21.9 °F21 %30.17 in10.0 miVariable3.5 mphClear
1:07 PM64.4 °F23.0 °F21 %30.24 in0.8 miVariable5.8 mphHaze
1:10 PM64.4 °F21.2 °F19 %30.24 in4.0 miVariable3.5 mphHaze
1:17 PM64.4 °F23.0 °F21 %30.24 in10.0 miVariable3.5 mphClear
1:50 PM64.4 °F23.0 °F21 %30.23 in0.5 miVariable4.6 mphHaze
1:53 PM64.9 °F23.0 °F20 %30.15 in1.8 miCalmHaze
1:56 PM64.4 °F23.0 °F21 %30.23 in5.0 miVariable3.5 mphHaze
2:02 PM64.4 °F21.2 °F19 %30.23 in2.5 miCalmHaze
2:10 PM64.4 °F21.2 °F19 %30.23 in1.2 miNNE (20°)4.6 mphHaze
2:14 PM64.4 °F21.2 °F19 %30.23 in5.0 miNNE (20°)5.8 mphHaze
2:28 PM64.4 °F17.6 °F16 %30.22 in0.8 miNorth (10°)6.9 mphHaze
2:53 PM64.9 °F19.0 °F17 %30.14 in0.2 miVariable4.6 mphHaze
3:21 PM64.4 °F21.2 °F19 %30.22 in2.5 miCalmHaze
3:28 PM66.2 °F23.0 °F19 %30.22 in10.0 miVariable5.8 mphClear
3:51 PM64.4 °F23.0 °F21 %30.22 in0.5 miNorth (10°)4.6 mphHaze
3:53 PM64.9 °F23.0 °F20 %30.14 in0.8 miNNE (20°)4.6 mphHaze
3:56 PM64.4 °F23.0 °F21 %30.21 in3.0 miVariable3.5 mphHaze
4:03 PM64.4 °F21.2 °F19 %30.21 in10.0 miVariable3.5 mphClear
4:53 PM63.0 °F23.0 °F22 %30.15 in10.0 miNNE (20°)4.6 mphClear
5:53 PM55.0 °F24.1 °F30 %30.17 in10.0 miNorthClear
6:53 PM48.0 °F19.9 °F33 %30.22 in10.0 miCalmClear
7:53 PM45.0 °F21.9 °F40 %30.25 in10.0 miCalmClear
8:53 PM39.9 °F23.0 °F51 %30.25 in10.0 miSSW (200°)4.6 mphClear
9:53 PM37.9 °F21.9 °F53 %30.22 in10.0 miCalmClear
10:53 PM35.1 °F21.9 °F59 %30.21 in10.0 miSouth (190°)3.5 mphClear
11:53 PM33.1 °F21.0 °F61 %30.20 in9.0 miCalm0.00 inSnowLight Snow
Hourly data recorded from KTVL, located miles away from South Lake Tahoe, California







STORIES FROM OUR PARTNERS